Weather History for Kaiser, MO

Change the Weather History Date:

Friday, March 28, 2014

  Actual Average Record
Temperature  
Mean Temperature 42 °F -  
Max Temperature 50 °F 60 °F 80 °F (2012)
Min Temperature 35 °F 38 °F 28 °F (2005)
Degree Days  
Heating Degree Days 22    
Moisture  
Dew Point 33 °F    
Average Humidity 69    
Maximum Humidity 81    
Minimum Humidity 54    
Precipitation  
Precipitation 0.00 in - - ()
Sea Level Pressure  
Sea Level Pressure 30.01 in    
Wind  
Wind Speed 5 mph (North)    
Max Wind Speed 12 mph    
Max Gust Speed 17 mph    
Visibility 10 miles    
Events      
Averages and records for this station are not official NWS values.
T = Trace of Precipitation, MM = Missing Value Source: NWS Daily Summary

Daily Weather History Graph

Daily Weather History Graph

Search for Another Location

Airport:

Trip Planner

Search our weather history database for the weather conditions in past years. The results will help you decide how hot, cold, wet, or windy it might be!

Date:

Astronomy

Mar. 28, 2014 Rise Set
Actual Time 7:01 AM CDT 7:29 PM CDT
Civil Twilight 6:34 AM CDT 7:56 PM CDT
Nautical Twilight 6:03 AM CDT 8:27 PM CDT
Astronomical Twilight 5:32 AM CDT 8:59 PM CDT
Moon 5:30 AM CDT (3/28) 5:28 PM CDT (3/28)
Length of Visible Light 13h 21m
Length of Day
12h 28m
Waning Crescent, 6% of the Moon is Illuminated
Mar 28
Waning Crescent
Mar 30
New
Apr 7
First Quarter
Apr 15
Full
Apr 22
Last Quarter

Hourly Weather History & Observations

Time (CDT) Temp. Windchill Dew Point Humidity Pressure Visibility Wind Dir Wind Speed Gust Speed Precip Events Conditions
12:15 AM 46.4 °F 43.5 °F 33.8 °F 62% 29.81 in 10.0 mi WNW 5.8 mph - N/A   Clear
12:35 AM 46.4 °F 44.3 °F 33.8 °F 62% 29.83 in 10.0 mi WNW 4.6 mph - N/A   Clear
12:55 AM 44.6 °F 40.7 °F 33.8 °F 66% 29.85 in 10.0 mi WNW 6.9 mph - N/A   Clear
1:15 AM 42.8 °F 40.1 °F 33.8 °F 70% 29.86 in 10.0 mi NW 4.6 mph - N/A   Clear
1:35 AM 42.8 °F 40.1 °F 32.0 °F 66% 29.87 in 10.0 mi NW 4.6 mph - N/A   Clear
1:55 AM 42.8 °F 38.6 °F 30.2 °F 61% 29.87 in 10.0 mi NW 6.9 mph - N/A   Clear
2:15 AM 41.0 °F 38.0 °F 30.2 °F 65% 29.88 in 10.0 mi NNW 4.6 mph - N/A   Clear
2:35 AM 39.2 °F 35.9 °F 30.2 °F 70% 29.88 in 10.0 mi WNW 4.6 mph - N/A   Clear
2:55 AM 39.2 °F 35.0 °F 30.2 °F 70% 29.89 in 10.0 mi WNW 5.8 mph - N/A   Clear
3:15 AM 39.2 °F 34.2 °F 30.2 °F 70% 29.91 in 10.0 mi West 6.9 mph - N/A   Clear
3:35 AM 39.2 °F 35.9 °F 30.2 °F 70% 29.89 in 10.0 mi NNW 4.6 mph - N/A   Clear
3:55 AM 37.4 °F 33.8 °F 30.2 °F 75% 29.90 in 10.0 mi NW 4.6 mph - N/A   Clear
4:15 AM 35.6 °F 31.7 °F 28.4 °F 75% 29.89 in 10.0 mi NW 4.6 mph - N/A   Clear
4:35 AM 37.4 °F 32.8 °F 28.4 °F 70% 29.91 in 10.0 mi WNW 5.8 mph - N/A   Clear
4:55 AM 37.4 °F 32.8 °F 30.2 °F 75% 29.91 in 10.0 mi NNW 5.8 mph - N/A   Clear
5:15 AM 35.6 °F 31.7 °F 30.2 °F 81% 29.91 in 10.0 mi NNW 4.6 mph - N/A   Clear
5:35 AM 35.6 °F - 28.4 °F 75% 29.92 in 10.0 mi Calm Calm - N/A   Clear
5:55 AM 35.6 °F 31.7 °F 28.4 °F 75% 29.93 in 10.0 mi NW 4.6 mph - N/A   Partly Cloudy
6:15 AM 35.6 °F - 28.4 °F 75% 29.95 in 10.0 mi Calm Calm - N/A   Mostly Cloudy
6:35 AM 35.6 °F - 28.4 °F 75% 29.96 in 10.0 mi Calm Calm - N/A   Overcast
6:55 AM 35.6 °F 29.9 °F 28.4 °F 75% 29.96 in 10.0 mi NNW 6.9 mph - N/A   Overcast
7:15 AM 35.6 °F 32.8 °F 28.4 °F 75% 29.96 in 10.0 mi NNW 3.5 mph - N/A   Overcast
7:35 AM 35.6 °F 32.8 °F 30.2 °F 81% 29.98 in 10.0 mi NW 3.5 mph - N/A   Overcast
7:55 AM 37.4 °F - 30.2 °F 75% 29.99 in 10.0 mi Calm Calm - N/A   Overcast
8:15 AM 37.4 °F 33.8 °F 30.2 °F 75% 30.00 in 10.0 mi NNW 4.6 mph - N/A   Overcast
8:35 AM 37.4 °F 34.9 °F 30.2 °F 75% 30.01 in 10.0 mi North 3.5 mph - N/A   Overcast
8:55 AM 37.4 °F 32.8 °F 30.2 °F 75% 30.00 in 10.0 mi NNW 5.8 mph - N/A   Overcast
9:15 AM 37.4 °F - 30.2 °F 75% 30.04 in 10.0 mi Calm Calm - N/A   Overcast
9:35 AM 37.4 °F 34.9 °F 30.2 °F 75% 30.03 in 10.0 mi North 3.5 mph - N/A   Overcast
9:55 AM 37.4 °F 34.9 °F 30.2 °F 75% 30.06 in 10.0 mi West 3.5 mph - N/A   Overcast
10:15 AM 39.2 °F - 30.2 °F 70% 30.07 in 10.0 mi Calm Calm - N/A   Overcast
10:35 AM 39.2 °F 35.9 °F 32.0 °F 75% 30.08 in 10.0 mi WNW 4.6 mph - N/A   Overcast
10:55 AM 39.2 °F 35.0 °F 30.2 °F 70% 30.10 in 10.0 mi West 5.8 mph - N/A   Overcast
11:15 AM 39.2 °F - 32.0 °F 75% 30.10 in 10.0 mi Calm Calm - N/A   Overcast
11:35 AM 39.2 °F - 32.0 °F 75% 30.09 in 10.0 mi Calm Calm - N/A   Overcast
11:55 AM 42.8 °F 39.3 °F 33.8 °F 70% 30.08 in 10.0 mi NE 5.8 mph - N/A   Overcast
12:15 PM 44.6 °F 38.8 °F 33.8 °F 66% 30.07 in 10.0 mi NNE 11.5 mph 17.3 mph N/A   Mostly Cloudy
12:35 PM 46.4 °F 42.4 °F 33.8 °F 62% 30.06 in 10.0 mi NE 8.1 mph - N/A   Partly Cloudy
12:55 PM 46.4 °F 42.9 °F 33.8 °F 62% 30.06 in 10.0 mi ENE 6.9 mph - N/A   Clear
1:15 PM 46.4 °F 42.9 °F 33.8 °F 62% 30.07 in 10.0 mi NE 6.9 mph - N/A   Clear
1:35 PM 48.2 °F - 33.8 °F 58% 30.07 in 10.0 mi NE 3.5 mph - N/A   Clear
1:55 PM 48.2 °F - 33.8 °F 58% 30.06 in 10.0 mi NE 3.5 mph - N/A   Clear
2:15 PM 48.2 °F - 33.8 °F 58% 30.04 in 10.0 mi ENE 8.1 mph - N/A   Clear
2:35 PM 48.2 °F - 35.6 °F 62% 30.04 in 10.0 mi ENE 5.8 mph - N/A   Clear
2:55 PM 50.0 °F - 33.8 °F 54% 30.03 in 10.0 mi NE 4.6 mph - N/A   Clear
3:15 PM 50.0 °F - 33.8 °F 54% 30.03 in 10.0 mi NE 9.2 mph - N/A   Clear
3:35 PM 50.0 °F - 35.6 °F 58% 30.02 in 10.0 mi NE 9.2 mph - N/A   Clear
3:55 PM 48.2 °F - 33.8 °F 58% 30.03 in 10.0 mi NNE 6.9 mph - N/A   Partly Cloudy
4:15 PM 48.2 °F - 33.8 °F 58% 30.03 in 10.0 mi NNE 6.9 mph - N/A   Scattered Clouds
4:35 PM 48.2 °F - 33.8 °F 58% 30.04 in 10.0 mi NNE 8.1 mph - N/A   Scattered Clouds
4:55 PM 48.2 °F - 33.8 °F 58% 30.05 in 10.0 mi North 4.6 mph - N/A   Mostly Cloudy
5:15 PM 46.4 °F 43.5 °F 35.6 °F 66% 30.06 in 10.0 mi NE 5.8 mph - N/A   Overcast
5:35 PM 46.4 °F 44.3 °F 33.8 °F 62% 30.07 in 10.0 mi NE 4.6 mph - N/A   Overcast
5:55 PM 46.4 °F 44.3 °F 33.8 °F 62% 30.08 in 10.0 mi ENE 4.6 mph - N/A   Overcast
6:15 PM 46.4 °F 45.2 °F 35.6 °F 66% 30.08 in 10.0 mi NNE 3.5 mph - N/A   Overcast
6:35 PM 46.4 °F 44.3 °F 35.6 °F 66% 30.08 in 10.0 mi North 4.6 mph - N/A   Overcast
6:55 PM 46.4 °F 44.3 °F 35.6 °F 66% 30.08 in 8.0 mi North 4.6 mph - N/A   Overcast
7:15 PM 44.6 °F 43.1 °F 35.6 °F 71% 30.09 in 7.0 mi North 3.5 mph - N/A   Overcast
7:35 PM 44.6 °F 42.2 °F 37.4 °F 76% 30.08 in 7.0 mi ENE 4.6 mph - N/A   Overcast
7:55 PM 44.6 °F 41.4 °F 37.4 °F 76% 30.08 in 8.0 mi NE 5.8 mph - N/A   Overcast
8:15 PM 44.6 °F 42.2 °F 37.4 °F 76% 30.07 in 9.0 mi NNE 4.6 mph - N/A   Overcast
8:35 PM 44.6 °F - 35.6 °F 71% 30.10 in 10.0 mi Calm Calm - N/A   Overcast
8:55 PM 44.6 °F 42.2 °F 35.6 °F 71% 30.10 in 10.0 mi NE 4.6 mph - N/A   Overcast
9:15 PM 44.6 °F 41.4 °F 35.6 °F 71% 30.10 in 10.0 mi NNE 5.8 mph - N/A   Overcast
9:35 PM 44.6 °F 41.4 °F 35.6 °F 71% 30.09 in 10.0 mi North 5.8 mph - N/A   Overcast
9:55 PM 44.6 °F 41.4 °F 35.6 °F 71% 30.10 in 10.0 mi North 5.8 mph - N/A   Mostly Cloudy
10:15 PM 42.8 °F 38.6 °F 35.6 °F 76% 30.10 in 10.0 mi North 6.9 mph - N/A   Mostly Cloudy
10:35 PM 42.8 °F 39.3 °F 35.6 °F 76% 30.10 in 10.0 mi NNE 5.8 mph - N/A   Mostly Cloudy
10:55 PM 42.8 °F 38.6 °F 35.6 °F 76% 30.12 in 10.0 mi NNE 6.9 mph - N/A   Mostly Cloudy
11:15 PM 42.8 °F 39.3 °F 33.8 °F 70% 30.12 in 10.0 mi NNE 5.8 mph - N/A   Scattered Clouds
11:35 PM 42.8 °F 40.1 °F 33.8 °F 70% 30.12 in 10.0 mi NNE 4.6 mph - N/A   Mostly Cloudy
11:55 PM 41.0 °F 37.1 °F 33.8 °F 76% 30.11 in 10.0 mi NE 5.8 mph - N/A   Mostly Cloudy